This is the latest recevied weather packets stored in our database for station/object K9UO. If no packets are shown the sender has not sent any weather packets the latest 1 day(s).
| Time | Temp. | Humidity | Pressure | Rain* | Wind** | Luminosity | Snow |
|---|---|---|---|---|---|---|---|
| 1778076935 | 9.44° C | 34% | 1012.7 hPa | 0 mm | - | - | - |
| 1778076046 | 9.44° C | 18% | 1012.8 hPa | 0 mm | - | - | - |
| 1778071509 | 7.22° C | 1% | 1012.3 hPa | 0 mm | - | - | - |
| 1778070604 | 7.22° C | 1% | 1012.1 hPa | 0 mm | - | - | - |
| 1778069762 | 7.22° C | 1% | 1011.9 hPa | 0 mm | - | - | - |
| 1778068863 | 6.67° C | 1% | 1011.5 hPa | 0 mm | - | - | - |
| 1778060716 | 6.11° C | 1% | 1009.6 hPa | 0 mm | - | - | - |
| 1778059812 | 6.11° C | 1% | 1009.9 hPa | 0 mm | - | - | - |
| 1778058907 | 6.11° C | 1% | 1009.2 hPa | 0 mm | - | - | - |
| 1778058004 | 6.11° C | 1% | 1009.5 hPa | 0 mm | - | - | - |
| 1778054445 | 6.11° C | 1% | 1008.7 hPa | 0 mm | - | - | - |
| 1778053541 | 6.11° C | 1% | 1009 hPa | 0 mm | - | - | - |
| 1778052638 | 6.11° C | 1% | 1009.7 hPa | 0 mm | - | - | - |
| 1778051732 | 5.56° C | 1% | 1009.4 hPa | 0.25 mm | - | - | - |
| 1778049927 | 6.11° C | 1% | 1008.6 hPa | 0.25 mm | - | - | - |
| 1778048114 | 6.11° C | 1% | 1009.6 hPa | 0.25 mm | - | - | - |
| 1778046305 | 6.67° C | 1% | 1010.1 hPa | 0.25 mm | - | - | - |
| 1778044560 | 6.67° C | 1% | 1009.2 hPa | 0.25 mm | - | - | - |
| 1778043656 | 6.67° C | 1% | 1009.4 hPa | 0.51 mm | - | - | - |
| 1778042752 | 6.67° C | 1% | 1009.2 hPa | 0.51 mm | - | - | - |
| 1778041842 | 7.22° C | 1% | 1009.3 hPa | 0.51 mm | - | - | - |
| 1778040942 | 7.22° C | 1% | 1009.5 hPa | 0.51 mm | - | - | - |
| 1778039130 | 7.22° C | 1% | 1009 hPa | 0.51 mm | - | - | - |
| 1778038228 | 7.78° C | 1% | 1009 hPa | 0.25 mm | - | - | - |
| 1778037338 | 7.78° C | 1% | 1009.2 hPa | 0.51 mm | - | - | - |
* Rain latest hour (hover to see other rain measurements)
** Current wind speed in m/s (hover to see current wind gust speed)